sat.trackr.live / text

‹ back to catalog

QIANFAN-128

NORAD 69074 · 2026-104B

PAYLOAD ACTIVE UNKNOWN

§ Identity

Operator
Country
PRC
Launch date
2026-05-12
Launch site
TAISC
Launch vehicle
Mass (kg)
RCS (m²)

External: N2YO · Heavens-Above · Gunter

§ Orbital elements

Epoch: 2026-09-20T04:05:02.903136Z

Period
106.59 min
Inclination
88.9900°
Eccentricity
0.0002269
Mean motion
13.51023704 rev/d
Perigee alt
1,066.8 km
Apogee alt
1,070.2 km
Semi-major
7,446.6 km
B*
6.5318e-5
RAAN
331.8116°
Arg perigee
112.6582°
Mean anomaly
247.4809°
Rev number
1,796

§ Raw data

QIANFAN-1281 69074U 26104B   26263.17017249  .00000054  00000+0  65318-4 0  99942 69074  88.9900 331.8116 0002269 112.6582 247.4809 13.51023704 17962

JSON: /api/v1/satellites/69074 · /tle

For live sub-satellite position, see the globe view (requires WebGL).

§ Visibility from observer

Set your observer location to see the next 7 days of passes ≥ 10°. The values pass through the URL so the page stays shareable.

No JS? Fill the form by hand. The geolocation button needs JavaScript.